GSAT-9

Last updated on Nov. 18, 2019, 4:21 a.m. UTC

1 42695U 17024A   19321.01576361 -.00000278  00000-0  00000+0 0  9992
2 42695   0.1268 101.4345 0002157 132.4627 284.8782  1.00270802  9326
UTC
Height (km)
Latitude
Longitude
Inclination
Orbital Period
UTC large
Height (km)
Speed (km/s)
/
Latitude / Longitude
Inclination (degrees)
Orbital Period (minutes)
Azimuth
Elevation
Range (km)
Doppler Factor
iOS Compass Heading
iOS Angle

Next 30 passes for location: Hong Kong

Rise time Rise Azimuth (degrees) Set time Set Azimuth (degrees) Duration Max altitude (degrees)

No matching passes for this satellites